TimeCDT,TemperatureF,Dew PointF,Humidity,Sea Level PressureIn,VisibilityMPH,Wind Direction,Wind SpeedMPH,Gust SpeedMPH,PrecipitationIn,Events,Conditions,WindDirDegrees,DateUTC
12:53 AM,41.0,30.0,65,29.90,10.0,WNW,8.1,-,N/A,,Clear,300,2014-03-10 05:53:00
1:53 AM,35.1,28.0,76,29.90,10.0,WNW,5.8,-,N/A,,Clear,300,2014-03-10 06:53:00
2:53 AM,33.1,27.0,78,29.91,10.0,NW,6.9,-,N/A,,Clear,310,2014-03-10 07:53:00
3:53 AM,32.0,27.0,82,29.89,10.0,WNW,8.1,-,N/A,,Clear,300,2014-03-10 08:53:00
4:53 AM,30.0,26.1,85,29.88,10.0,NW,6.9,-,N/A,,Clear,320,2014-03-10 09:53:00
5:53 AM,28.9,24.1,82,29.88,10.0,WNW,5.8,-,N/A,,Clear,300,2014-03-10 10:53:00
6:53 AM,28.9,26.1,89,29.92,10.0,NW,8.1,-,N/A,,Clear,310,2014-03-10 11:53:00
7:53 AM,30.9,27.0,85,29.92,10.0,NW,9.2,-,N/A,,Clear,310,2014-03-10 12:53:00
8:53 AM,33.1,28.9,85,29.93,10.0,NW,9.2,-,N/A,,Clear,310,2014-03-10 13:53:00
9:53 AM,41.0,32.0,70,29.91,10.0,WNW,4.6,-,N/A,,Clear,300,2014-03-10 14:53:00
10:53 AM,48.9,32.0,52,29.90,10.0,WNW,9.2,-,N/A,,Clear,300,2014-03-10 15:53:00
11:53 AM,55.9,33.1,42,29.88,10.0,West,5.8,-,N/A,,Clear,260,2014-03-10 16:53:00
12:53 PM,63.0,32.0,31,29.81,10.0,Variable,3.5,-,N/A,,Clear,0,2014-03-10 17:53:00
1:53 PM,69.1,30.0,23,29.78,10.0,West,8.1,-,N/A,,Clear,280,2014-03-10 18:53:00
2:53 PM,70.0,28.9,22,29.74,10.0,West,12.7,-,N/A,,Clear,280,2014-03-10 19:53:00
3:53 PM,71.1,28.9,21,29.69,10.0,WNW,12.7,-,N/A,,Clear,290,2014-03-10 20:53:00
4:53 PM,70.0,32.0,25,29.68,10.0,WSW,11.5,-,N/A,,Clear,250,2014-03-10 21:53:00
5:53 PM,72.0,30.9,22,29.65,10.0,West,11.5,-,N/A,,Clear,260,2014-03-10 22:53:00
6:53 PM,68.0,33.1,27,29.64,10.0,SSW,4.6,-,N/A,,Clear,210,2014-03-10 23:53:00
7:53 PM,54.0,30.9,41,29.65,10.0,Calm,Calm,-,N/A,,Clear,0,2014-03-11 00:53:00
8:53 PM,50.0,33.1,52,29.65,10.0,Calm,Calm,-,N/A,,Clear,0,2014-03-11 01:53:00
9:53 PM,48.0,32.0,54,29.62,10.0,Calm,Calm,-,N/A,,Clear,0,2014-03-11 02:53:00
10:53 PM,51.1,28.9,43,29.58,10.0,SSE,5.8,-,N/A,,Clear,160,2014-03-11 03:53:00
11:53 PM,50.0,28.0,43,29.54,10.0,SSE,4.6,-,N/A,,Clear,150,2014-03-11 04:53:00